Location: Newberry Star Park
(29.6730°N, 82.6011°W)
Time: 17:00:23
(UTC-05:00)

OTV 5 (USA 277) - Visible Passes

Search period start: 23 January 2018 00:00
Search period end: 02 February 2018 00:00
Orbit: 404 x 417 km, 43.0° (Epoch: 07 September)

Date Brightness Start Highest point End Pass type
(mag) Time Alt. Az. Time Alt. Az. Time Alt. Az.
23 Jan ? 19:25:55 10° WNW 19:28:33 21° NNW 19:29:15 19° N visible
24 Jan ? 18:34:21 10° W 18:37:21 29° NNW 18:40:21 10° NE visible
25 Jan ? 19:22:40 10° NW 19:24:06 12° NNW 19:24:54 11° N visible
26 Jan ? 18:30:43 10° WNW 18:32:49 15° NNW 18:34:55 10° NNE visible
28 Jan ? 18:28:11 10° NNW 18:28:27 10° N 18:28:44 10° N visible
31 Jan ? 19:10:11 10° N 19:11:18 11° NNE 19:11:38 11° NNE visible
01 Feb ? 19:55:14 10° NNW 19:55:58 14° NNW 19:55:58 14° NNW visible
